Time,TemperatureF,DewpointF,PressureIn,WindDirection,WindDirectionDegrees,WindSpeedMPH,WindSpeedGustMPH,Humidity,HourlyPrecipIn,Conditions,Clouds,dailyrainin,SoftwareType,DateUTC
2013-05-05 00:02:00,46.0,39.0,30.26,East,94,0.0,0.0,77,0.00,,,0.00,,2013-05-05 04:02:00,
2013-05-05 00:12:00,46.0,39.0,30.26,East,94,0.0,0.0,77,0.00,,,0.00,,2013-05-05 04:12:00,
2013-05-05 00:23:00,46.0,39.0,30.26,East,94,0.0,0.0,77,0.00,,,0.00,,2013-05-05 04:23:00,
2013-05-05 00:32:00,45.0,39.0,30.26,East,94,0.0,0.0,78,0.00,,,0.00,,2013-05-05 04:32:00,
2013-05-05 00:43:00,45.0,39.0,30.26,East,94,0.0,0.0,78,0.00,,,0.00,,2013-05-05 04:43:00,
2013-05-05 00:52:00,45.0,39.0,30.26,East,94,0.0,0.0,78,0.00,,,0.00,,2013-05-05 04:52:00,
2013-05-05 01:02:00,44.0,38.0,30.26,East,94,0.0,0.0,79,0.00,,,0.00,,2013-05-05 05:02:00,
2013-05-05 01:12:00,44.0,38.0,30.26,East,94,0.0,0.0,79,0.00,,,0.00,,2013-05-05 05:12:00,
2013-05-05 01:21:00,44.0,38.0,30.26,East,94,0.0,0.0,79,0.00,,,0.00,,2013-05-05 05:21:00,
2013-05-05 01:32:00,44.0,38.0,30.26,East,94,0.0,0.0,80,0.00,,,0.00,,2013-05-05 05:32:00,
2013-05-05 01:42:00,44.0,38.0,30.26,East,94,0.0,0.0,80,0.00,,,0.00,,2013-05-05 05:42:00,
2013-05-05 01:51:00,43.0,38.0,30.25,East,94,0.0,0.0,81,0.00,,,0.00,,2013-05-05 05:51:00,
2013-05-05 02:01:00,43.0,38.0,30.25,East,94,0.0,0.0,81,0.00,,,0.00,,2013-05-05 06:01:00,
2013-05-05 02:12:00,43.0,38.0,30.25,East,94,0.0,0.0,81,0.00,,,0.00,,2013-05-05 06:12:00,
2013-05-05 02:21:00,43.0,38.0,30.24,East,94,0.0,0.0,82,0.00,,,0.00,,2013-05-05 06:21:00,
2013-05-05 02:32:00,42.0,37.0,30.24,East,94,0.0,0.0,82,0.00,,,0.00,,2013-05-05 06:32:00,
2013-05-05 02:42:00,42.0,37.0,30.24,East,94,0.0,0.0,82,0.00,,,0.00,,2013-05-05 06:42:00,
2013-05-05 02:52:00,42.0,37.0,30.23,East,94,0.0,0.0,83,0.00,,,0.00,,2013-05-05 06:52:00,
2013-05-05 03:01:00,41.0,36.0,30.23,East,94,0.0,0.0,83,0.00,,,0.00,,2013-05-05 07:01:00,
2013-05-05 03:11:00,41.0,36.0,30.23,East,94,0.0,0.0,83,0.00,,,0.00,,2013-05-05 07:11:00,
2013-05-05 03:22:00,41.0,36.0,30.23,East,94,0.0,0.0,83,0.00,,,0.00,,2013-05-05 07:22:00,
2013-05-05 03:32:00,41.0,37.0,30.23,East,94,0.0,0.0,84,0.00,,,0.00,,2013-05-05 07:32:00,
2013-05-05 03:42:00,41.0,37.0,30.23,East,94,0.0,0.0,84,0.00,,,0.00,,2013-05-05 07:42:00,
2013-05-05 03:52:00,41.0,37.0,30.23,East,94,0.0,2.0,85,0.00,,,0.00,,2013-05-05 07:52:00,
2013-05-05 04:02:00,41.0,37.0,30.23,East,94,0.0,0.0,86,0.00,,,0.00,,2013-05-05 08:02:00,
2013-05-05 04:11:00,41.0,37.0,30.23,East,94,0.0,0.0,86,0.00,,,0.00,,2013-05-05 08:11:00,
2013-05-05 04:21:00,42.0,38.0,30.23,East,94,0.0,1.0,87,0.00,,,0.00,,2013-05-05 08:21:00,
2013-05-05 04:32:00,42.0,39.0,30.23,NE,40,0.0,2.0,88,0.00,,,0.00,,2013-05-05 08:32:00,
2013-05-05 04:42:00,42.0,39.0,30.23,NE,40,0.0,2.0,88,0.00,,,0.00,,2013-05-05 08:42:00,
2013-05-05 04:53:00,42.0,39.0,30.23,NE,40,0.0,2.0,88,0.00,,,0.00,,2013-05-05 08:53:00,
2013-05-05 05:01:00,42.0,39.0,30.23,NE,35,0.0,2.0,88,0.00,,,0.00,,2013-05-05 09:01:00,
2013-05-05 05:11:00,42.0,39.0,30.23,NE,35,0.0,2.0,88,0.00,,,0.00,,2013-05-05 09:11:00,
2013-05-05 05:21:00,42.0,39.0,30.23,NE,42,0.0,1.0,88,0.00,,,0.00,,2013-05-05 09:21:00,
2013-05-05 05:33:00,42.0,39.0,30.23,NE,42,0.0,0.0,88,0.00,,,0.00,,2013-05-05 09:33:00,
2013-05-05 05:42:00,42.0,39.0,30.23,NE,42,0.0,0.0,88,0.00,,,0.00,,2013-05-05 09:42:00,
2013-05-05 05:52:00,42.0,39.0,30.23,NE,42,0.0,0.0,88,0.00,,,0.00,,2013-05-05 09:52:00,
2013-05-05 06:03:00,42.0,39.0,30.23,NE,42,0.0,0.0,88,0.00,,,0.00,,2013-05-05 10:03:00,
2013-05-05 06:12:00,42.0,39.0,30.23,NE,42,0.0,0.0,88,0.00,,,0.00,,2013-05-05 10:12:00,
2013-05-05 06:22:00,42.0,39.0,30.23,NE,42,0.0,0.0,88,0.00,,,0.00,,2013-05-05 10:22:00,
2013-05-05 06:32:00,42.0,39.0,30.23,NE,42,0.0,0.0,88,0.00,,,0.00,,2013-05-05 10:32:00,
2013-05-05 06:42:00,42.0,39.0,30.23,NE,42,0.0,0.0,88,0.00,,,0.00,,2013-05-05 10:42:00,
2013-05-05 06:52:00,41.0,38.0,30.24,NE,42,0.0,0.0,88,0.00,,,0.00,,2013-05-05 10:52:00,
2013-05-05 07:01:00,42.0,39.0,30.24,ENE,61,1.0,6.0,89,0.00,,,0.00,,2013-05-05 11:01:00,
2013-05-05 07:12:00,42.0,39.0,30.24,ENE,61,1.0,6.0,89,0.00,,,0.00,,2013-05-05 11:12:00,
2013-05-05 07:22:00,42.0,39.0,30.24,ENE,77,2.0,4.0,89,0.00,,,0.00,,2013-05-05 11:22:00,
2013-05-05 07:32:00,43.0,40.0,30.24,NE,55,0.0,3.0,89,0.00,,,0.00,,2013-05-05 11:32:00,
2013-05-05 07:42:00,43.0,40.0,30.24,NE,55,0.0,3.0,89,0.00,,,0.00,,2013-05-05 11:42:00,
2013-05-05 07:52:00,44.0,41.0,30.24,NE,34,3.0,5.0,88,0.00,,,0.00,,2013-05-05 11:52:00,
2013-05-05 08:02:00,45.0,40.0,30.25,East,85,3.0,7.0,81,0.00,,,0.00,,2013-05-05 12:02:00,
2013-05-05 08:11:00,45.0,40.0,30.25,East,85,3.0,7.0,81,0.00,,,0.00,,2013-05-05 12:11:00,
2013-05-05 08:21:00,46.0,39.0,30.25,NE,48,3.0,7.0,76,0.00,,,0.00,,2013-05-05 12:21:00,
2013-05-05 08:32:00,47.0,38.0,30.25,NNE,17,3.0,6.0,71,0.00,,,0.00,,2013-05-05 12:32:00,
2013-05-05 08:42:00,47.0,38.0,30.25,NNE,17,3.0,6.0,71,0.00,,,0.00,,2013-05-05 12:42:00,
2013-05-05 08:52:00,47.0,37.0,30.25,ESE,102,1.0,8.0,68,0.00,,,0.00,,2013-05-05 12:52:00,
2013-05-05 09:01:00,48.0,37.0,30.25,NE,52,4.0,10.0,66,0.00,,,0.00,,2013-05-05 13:01:00,
2013-05-05 09:11:00,48.0,37.0,30.25,NE,52,4.0,10.0,66,0.00,,,0.00,,2013-05-05 13:11:00,
2013-05-05 09:21:00,49.0,37.0,30.25,East,79,2.0,8.0,62,0.00,,,0.00,,2013-05-05 13:21:00,
2013-05-05 09:32:00,51.0,37.0,30.25,ENE,68,4.0,8.0,58,0.00,,,0.00,,2013-05-05 13:32:00,
2013-05-05 09:42:00,51.0,37.0,30.25,ENE,68,4.0,8.0,58,0.00,,,0.00,,2013-05-05 13:42:00,
2013-05-05 09:52:00,52.0,36.0,30.25,ESE,115,3.0,9.0,55,0.00,,,0.00,,2013-05-05 13:52:00,
2013-05-05 10:02:00,53.0,36.0,30.25,East,80,3.0,7.0,53,0.00,,,0.00,,2013-05-05 14:02:00,
2013-05-05 10:11:00,53.0,36.0,30.25,East,80,3.0,7.0,53,0.00,,,0.00,,2013-05-05 14:11:00,
2013-05-05 10:21:00,53.0,35.0,30.24,ENE,67,3.0,6.0,51,0.00,,,0.00,,2013-05-05 14:21:00,
2013-05-05 10:32:00,54.0,36.0,30.24,ENE,68,3.0,7.0,50,0.00,,,0.00,,2013-05-05 14:32:00,
2013-05-05 10:42:00,54.0,36.0,30.24,ENE,68,3.0,7.0,50,0.00,,,0.00,,2013-05-05 14:42:00,
2013-05-05 10:52:00,54.0,35.0,30.24,NE,54,2.0,9.0,49,0.00,,,0.00,,2013-05-05 14:52:00,
2013-05-05 11:02:00,56.0,36.0,30.24,ESE,117,2.0,9.0,46,0.00,,,0.00,,2013-05-05 15:02:00,
2013-05-05 11:11:00,56.0,36.0,30.24,ESE,117,2.0,9.0,46,0.00,,,0.00,,2013-05-05 15:11:00,
2013-05-05 11:21:00,57.0,38.0,30.24,SSW,201,2.0,5.0,48,0.00,,,0.00,,2013-05-05 15:21:00,
2013-05-05 11:33:00,58.0,34.0,30.23,SSE,168,2.0,9.0,41,0.00,,,0.00,,2013-05-05 15:33:00,
2013-05-05 11:43:00,58.0,34.0,30.23,SSE,168,2.0,9.0,41,0.00,,,0.00,,2013-05-05 15:43:00,
2013-05-05 11:53:00,58.0,37.0,30.23,SSW,204,3.0,5.0,45,0.00,,,0.00,,2013-05-05 15:53:00,
2013-05-05 12:03:00,60.0,35.0,30.23,East,87,3.0,8.0,39,0.00,,,0.00,,2013-05-05 16:03:00,
2013-05-05 12:12:00,60.0,35.0,30.23,East,87,3.0,8.0,39,0.00,,,0.00,,2013-05-05 16:12:00,
2013-05-05 12:23:00,59.0,37.0,30.23,ENE,62,2.0,8.0,43,0.00,,,0.00,,2013-05-05 16:23:00,
2013-05-05 12:32:00,59.0,35.0,30.22,East,94,3.0,7.0,41,0.00,,,0.00,,2013-05-05 16:32:00,
2013-05-05 12:42:00,59.0,35.0,30.22,East,94,3.0,7.0,41,0.00,,,0.00,,2013-05-05 16:42:00,
2013-05-05 12:52:00,60.0,35.0,30.22,SSW,206,3.0,7.0,39,0.00,,,0.00,,2013-05-05 16:52:00,
2013-05-05 13:02:00,61.0,38.0,30.22,WSW,241,2.0,8.0,43,0.00,,,0.00,,2013-05-05 17:02:00,
2013-05-05 13:12:00,61.0,38.0,30.22,WSW,241,2.0,8.0,43,0.00,,,0.00,,2013-05-05 17:12:00,
2013-05-05 13:23:00,61.0,40.0,30.21,SSW,205,2.0,6.0,45,0.00,,,0.00,,2013-05-05 17:23:00,
2013-05-05 13:32:00,60.0,40.0,30.21,SSW,202,5.0,10.0,47,0.00,,,0.00,,2013-05-05 17:32:00,
2013-05-05 13:42:00,60.0,40.0,30.21,SSW,202,5.0,10.0,47,0.00,,,0.00,,2013-05-05 17:42:00,
2013-05-05 13:52:00,60.0,40.0,30.21,WNW,285,2.0,5.0,47,0.00,,,0.00,,2013-05-05 17:52:00,
2013-05-05 14:01:00,61.0,41.0,30.20,SSW,213,3.0,6.0,48,0.00,,,0.00,,2013-05-05 18:01:00,
2013-05-05 14:12:00,61.0,41.0,30.20,SSW,213,3.0,6.0,48,0.00,,,0.00,,2013-05-05 18:12:00,
2013-05-05 14:21:00,61.0,41.0,30.20,East,83,1.0,4.0,47,0.00,,,0.00,,2013-05-05 18:21:00,
2013-05-05 14:32:00,60.0,40.0,30.20,SW,235,3.0,7.0,47,0.00,,,0.00,,2013-05-05 18:32:00,
2013-05-05 14:42:00,60.0,40.0,30.20,SW,235,3.0,7.0,47,0.00,,,0.00,,2013-05-05 18:42:00,
2013-05-05 14:52:00,60.0,41.0,30.19,SW,220,1.0,6.0,50,0.00,,,0.00,,2013-05-05 18:52:00,
2013-05-05 15:01:00,59.0,39.0,30.19,ESE,104,3.0,7.0,48,0.00,,,0.00,,2013-05-05 19:01:00,
2013-05-05 15:11:00,59.0,39.0,30.19,ESE,104,3.0,7.0,48,0.00,,,0.00,,2013-05-05 19:11:00,
2013-05-05 15:21:00,59.0,39.0,30.20,SW,221,3.0,11.0,48,0.00,,,0.00,,2013-05-05 19:21:00,
2013-05-05 15:32:00,60.0,40.0,30.20,ENE,57,1.0,5.0,47,0.00,,,0.00,,2013-05-05 19:32:00,
2013-05-05 15:42:00,60.0,40.0,30.20,ENE,57,1.0,5.0,47,0.00,,,0.00,,2013-05-05 19:42:00,
2013-05-05 15:52:00,59.0,39.0,30.19,West,266,1.0,7.0,48,0.00,,,0.00,,2013-05-05 19:52:00,
2013-05-05 16:01:00,60.0,39.0,30.19,ESE,106,1.0,5.0,46,0.00,,,0.00,,2013-05-05 20:01:00,
2013-05-05 16:11:00,60.0,39.0,30.19,ESE,106,1.0,5.0,46,0.00,,,0.00,,2013-05-05 20:11:00,
2013-05-05 16:21:00,60.0,40.0,30.18,SW,228,1.0,7.0,47,0.00,,,0.00,,2013-05-05 20:21:00,
2013-05-05 16:32:00,60.0,39.0,30.19,SE,133,0.0,7.0,46,0.00,,,0.00,,2013-05-05 20:32:00,
2013-05-05 16:42:00,60.0,39.0,30.19,SE,133,0.0,7.0,46,0.00,,,0.00,,2013-05-05 20:42:00,
2013-05-05 16:52:00,60.0,40.0,30.19,SW,230,2.0,7.0,47,0.00,,,0.00,,2013-05-05 20:52:00,
2013-05-05 17:02:00,60.0,40.0,30.18,SW,229,1.0,9.0,47,0.00,,,0.00,,2013-05-05 21:02:00,
2013-05-05 17:11:00,60.0,40.0,30.18,SW,229,1.0,9.0,47,0.00,,,0.00,,2013-05-05 21:11:00,
2013-05-05 17:21:00,60.0,40.0,30.18,SW,223,0.0,6.0,47,0.00,,,0.00,,2013-05-05 21:21:00,
2013-05-05 17:33:00,59.0,39.0,30.18,ESE,114,0.0,4.0,47,0.00,,,0.00,,2013-05-05 21:33:00,
2013-05-05 17:42:00,59.0,39.0,30.18,ESE,114,0.0,4.0,47,0.00,,,0.00,,2013-05-05 21:42:00,
2013-05-05 17:53:00,59.0,38.0,30.17,East,100,1.0,5.0,46,0.00,,,0.00,,2013-05-05 21:53:00,
2013-05-05 18:02:00,59.0,39.0,30.17,East,85,1.0,5.0,48,0.00,,,0.00,,2013-05-05 22:02:00,
2013-05-05 18:12:00,59.0,39.0,30.17,East,85,1.0,5.0,48,0.00,,,0.00,,2013-05-05 22:12:00,
2013-05-05 18:22:00,59.0,39.0,30.18,SE,141,0.0,4.0,48,0.00,,,0.00,,2013-05-05 22:22:00,
2013-05-05 18:33:00,58.0,39.0,30.17,South,179,0.0,4.0,49,0.00,,,0.00,,2013-05-05 22:33:00,
2013-05-05 18:42:00,58.0,39.0,30.17,South,179,0.0,4.0,49,0.00,,,0.00,,2013-05-05 22:42:00,
2013-05-05 18:52:00,58.0,39.0,30.18,East,88,1.0,7.0,49,0.00,,,0.00,,2013-05-05 22:52:00,
2013-05-05 19:02:00,57.0,39.0,30.18,SW,231,0.0,4.0,51,0.00,,,0.00,,2013-05-05 23:02:00,
2013-05-05 19:11:00,57.0,39.0,30.18,SW,231,0.0,4.0,51,0.00,,,0.00,,2013-05-05 23:11:00,
2013-05-05 19:21:00,57.0,40.0,30.18,NNE,21,2.0,7.0,52,0.00,,,0.00,,2013-05-05 23:21:00,
2013-05-05 19:32:00,56.0,40.0,30.18,WSW,253,0.0,3.0,55,0.00,,,0.00,,2013-05-05 23:32:00,
2013-05-05 19:42:00,56.0,40.0,30.18,WSW,253,0.0,3.0,55,0.00,,,0.00,,2013-05-05 23:42:00,
2013-05-05 19:52:00,55.0,39.0,30.19,West,281,0.0,3.0,55,0.00,,,0.00,,2013-05-05 23:52:00,
2013-05-05 20:01:00,55.0,41.0,30.19,East,95,0.0,3.0,59,0.00,,,0.00,,2013-05-06 00:01:00,
2013-05-05 20:11:00,55.0,41.0,30.19,East,95,0.0,3.0,59,0.00,,,0.00,,2013-05-06 00:11:00,
2013-05-05 20:21:00,54.0,40.0,30.19,East,98,0.0,1.0,60,0.00,,,0.00,,2013-05-06 00:21:00,
2013-05-05 20:32:00,53.0,41.0,30.20,East,93,0.0,2.0,64,0.00,,,0.00,,2013-05-06 00:32:00,
2013-05-05 20:41:00,53.0,41.0,30.20,East,93,0.0,2.0,64,0.00,,,0.00,,2013-05-06 00:41:00,
2013-05-05 20:51:00,53.0,42.0,30.20,ESE,109,0.0,1.0,65,0.00,,,0.00,,2013-05-06 00:51:00,
2013-05-05 21:01:00,52.0,42.0,30.20,ESE,121,0.0,0.0,69,0.00,,,0.00,,2013-05-06 01:01:00,
2013-05-05 21:11:00,52.0,42.0,30.20,ESE,121,0.0,0.0,69,0.00,,,0.00,,2013-05-06 01:11:00,
2013-05-05 21:21:00,51.0,42.0,30.21,ESE,121,0.0,0.0,71,0.00,,,0.00,,2013-05-06 01:21:00,
2013-05-05 21:31:00,50.0,42.0,30.21,ESE,121,0.0,0.0,74,0.00,,,0.00,,2013-05-06 01:31:00,
2013-05-05 21:42:00,50.0,42.0,30.21,ESE,121,0.0,0.0,74,0.00,,,0.00,,2013-05-06 01:42:00,
2013-05-05 21:52:00,50.0,42.0,30.22,ESE,121,0.0,0.0,74,0.00,,,0.00,,2013-05-06 01:52:00,
2013-05-05 22:02:00,50.0,42.0,30.22,ESE,121,0.0,0.0,75,0.00,,,0.00,,2013-05-06 02:02:00,
2013-05-05 22:12:00,50.0,42.0,30.22,ESE,121,0.0,0.0,75,0.00,,,0.00,,2013-05-06 02:12:00,
2013-05-05 22:21:00,50.0,43.0,30.22,ESE,121,0.0,0.0,76,0.00,,,0.00,,2013-05-06 02:21:00,
2013-05-05 22:32:00,49.0,42.0,30.22,ESE,121,0.0,0.0,77,0.00,,,0.00,,2013-05-06 02:32:00,
2013-05-05 22:42:00,49.0,42.0,30.22,ESE,121,0.0,0.0,77,0.00,,,0.00,,2013-05-06 02:42:00,
2013-05-05 22:51:00,49.0,42.0,30.22,ESE,121,0.0,0.0,77,0.00,,,0.00,,2013-05-06 02:51:00,
2013-05-05 23:02:00,49.0,42.0,30.22,ESE,121,0.0,0.0,77,0.00,,,0.00,,2013-05-06 03:02:00,
2013-05-05 23:11:00,49.0,42.0,30.22,ESE,121,0.0,0.0,77,0.00,,,0.00,,2013-05-06 03:11:00,
2013-05-05 23:22:00,48.0,41.0,30.22,ESE,121,0.0,0.0,77,0.00,,,0.00,,2013-05-06 03:22:00,
2013-05-05 23:33:00,48.0,41.0,30.22,SE,133,0.0,0.0,78,0.00,,,0.00,,2013-05-06 03:33:00,
2013-05-05 23:42:00,48.0,41.0,30.22,SE,133,0.0,0.0,78,0.00,,,0.00,,2013-05-06 03:42:00,
2013-05-05 23:52:00,48.0,42.0,30.22,SE,133,0.0,1.0,79,0.00,,,0.00,,2013-05-06 03:52:00,